CZ-4 DEB, 26198

Orbit data source: Space-Track

CZ-4 DEB, 26198 is space debris in SSO originally from a launch on Thu, 14 Oct 1999 UTC launched from the Taiyaun Space Center, China (TSC). Debris objects in space refer to the collection of defunct objects orbiting the Earth. Examples of debris include non-operational satellites, rocket bodies, and fragments generated from explosions, collisions, or faulty payload assembly.

Loading next visibility...
Identifier
26198, 1999-057CL
Orbit
SSO
Country
Flag of CNCN / PRC
Related business
Manufacturer
Unknown
Mission
Spacecraft
Bus & Motor
Unknown
Mass
Unknown
Launch date (UTC)
1999-10-14 (26 years ago)
Launch vehicle
Unknown
Launch site
Taiyaun Space Center, China (TSC)
Object type
Payload
Rocket body
Debris
Shape & HBR
Unknown shape, 0.2 m
Radar Cross Section
Small (<0.1 m²)

Expand to show TLE details & history
Last TLE update: 9 hours ago

TLE from 9 hours ago
0 CZ-4 DEB
1 26198U 99057CL  25293.04813448  .00003054  00000-0  73361-3 0  9994
2 26198  98.5532 339.2700 0069172 108.7304 252.1414 14.52685460347657
Epoch: 2025-10-20T01:09Z
TLE epoch observation values (Epoch: 2025-10-20T01:09:18.819Z)
Latitude
Longitude
-66.81446°
Altitude
735.216 km
Speed
7.479 km/s
True Right ascension
22h 37m 04s
True Declination
0° 00' 00"
Sunlit
Object was in full shadow at epoch
Visualization orbit readout
Latitude
Unknown
Longitude
Unknown
Altitude
Unknown
Speed
Unknown
Apparent Right ascension
Unknown
Apparent Declination
Unknown
Sunlit
N/A
Visualization observer readout
Local Sidereal Time
05:17:29
Azimuth
Unknown
Elevation
Unknown
Doppler factor
Unknown
Orbital elements
Apogee altitude
763.056 km
Perigee altitude
664.941 km
Semi-major axis
7,092.135 km
Eccentricity
0.00692
Inclination
98.5532°
RAAN
339.27°
Arg. of periapsis
108.7304°
True anomaly
251.38896°
Mean anomaly
252.1414°
Eccentric anomaly
251.76498°
Mean motion
3.63394 °/min
Orbital period
99.07 mins
BSTAR
0.00073361
Loading maneuver chart data...
Computing Atmospheric mass density...

Documentation

Showing up to 5 results
|